Regional Weather Roundup
Issued by NWS

Home | Current Version | Previous Version | Text Only | Print | Product List | Glossary On
Versions: 1 2 3 4 5 6 7 8 9 10 11 12 13 14 15 16 17 18 19 20 21 22 23 24 25 26 27 28 29 30 31 32 33 34 35 36 37 38 39 40 41 42 43 44 45 46 47 48 49 50
000
ASUS44 KBMX 170410
RWRAL

ALABAMA REGIONAL WEATHER ROUNDUP
NATIONAL WEATHER SERVICE BIRMINGHAM AL
1100 PM CDT MON OCT 16 2017

NOTE: "FAIR" INDICATES FEW OR NO CLOUDS BELOW 12,000 FEET
WITH NO SIGNIFICANT WEATHER AND/OR OBSTRUCTIONS TO VISIBILITY.

THE REMARK "TC" DENOTES TEMPERATURE IN DEGREES CELSIUS.

ALZ001>011-014-016>018-020-170500-
NORTH ALABAMA

CITY           SKY/WX    TMP DP  RH WIND       PRES   REMARKS
MUSCLE SHOALS  CLEAR     55  43  63 NE7       30.30S
HUNTSVILLE     CLEAR     51  45  79 NE5       30.28R
DECATUR        CLEAR     50  45  83 NE5       30.29R
HALEYVILLE     FAIR      51  45  79 NE5       30.29S
GADSDEN        CLOUDY    52  47  83 NE3       30.25F
$$

ALZ012-013-022-023-030>036-040>044-170500-
WEST CENTRAL ALABAMA

CITY           SKY/WX    TMP DP  RH WIND       PRES   REMARKS
TUSCALOOSA     CLEAR     54  48  80 N6        30.24S
DEMOPOLIS        N/A     54  47  79 CALM      30.23R
$$

ALZ015-024>026-033>036-041>044-170500-
CENTRAL ALABAMA

CITY           SKY/WX    TMP DP  RH WIND       PRES   REMARKS
BIRMINGHAM     CLOUDY    55  44  66 N7        30.26S
MONTGOMERY     PTCLDY    59  48  67 N5        30.19S
SHELBY CO ARPT CLOUDY    58  46  64 N8        30.22S
MAXWELL AFB    CLOUDY    57  50  78 N5        30.18S
GREENVILLE     FAIR      57  48  72 N9        30.17R
SELMA          FAIR      54  48  82 N3        30.20S
PRATTVILLE     FAIR      56  48  76 N3        30.19S
BESSEMER       FAIR      56  45  66 N8        30.23S
TALLADEGA      FAIR      53  48  84 CALM      30.24S
PELL CITY      CLEAR     54  46  76 N7        30.24S
MARION         NOT AVBL
SYLACAUGA      FAIR      55  49  78 NE3       30.22S
$$

ALZ019-021-028-029-037-038-045>048-170500-
EAST CENTRAL ALABAMA

CITY           SKY/WX    TMP DP  RH WIND       PRES   REMARKS
ANNISTON       CLOUDY    56  44  64 NE3       30.23S
ALEXANDER CITY CLOUDY    55  46  74 NE5       30.20S
AUBURN         CLOUDY    55  46  71 NE12G20   30.19S
$$

ALZ051>064-170500-
SOUTHWEST ALABAMA

CITY           SKY/WX    TMP DP  RH WIND       PRES   REMARKS
MOBILE         MOCLDY    61  50  67 N16       30.17S
BROOKLEY FIELD PTCLDY    64  53  67 N13G24    30.16F
EVERGREEN      PTCLDY    57  50  77 N6        30.17S
$$

ALZ049-050-065>069-170500-
SOUTHEAST ALABAMA

CITY           SKY/WX    TMP DP  RH WIND       PRES   REMARKS
DOTHAN         CLOUDY    59  50  72 N10G17    30.16S
OZARK          PTCLDY    60  47  61 N13       30.13R
TROY           PTCLDY    58  48  69 N13       30.17S
EUFAULA        FAIR      59  49  69 VRB3      30.14S
$$



USA.gov is the U.S. government's official web portal to all federal, state and local government web resources and services.